GFSFLT1_850_thetae_231.txt.gz
Theta_e
336 332 331 331 331 333 336 335 335 330 326 326 326 325 326 329 330 329 330 328 324 325 328 328 328 330 328 330 330 330 328 330 330
338 337 335 332 334 334 333 334 336 334 334 327 326 327 326 328 329 329 330 330 327 326 325 324 325 328 329 328 326 329 326 329 327
337 337 337 338 336 333 336 337 337 336 336 334 329 327 327 327 328 329 330 331 331 330 329 324 323 324 327 327 327 326 326 324 326
334 334 333 333 335 337 338 335 335 336 337 337 335 331 327 327 327 328 330 330 331 331 330 328 325 324 326 331 326 328 326 325 326
326 329 330 331 331 332 333 334 337 335 334 337 338 336 333 330 327 327 328 330 331 331 332 331 329 325 325 329 328 324 324 325 328
311 314 316 320 322 324 327 329 330 333 335 336 335 338 334 334 331 328 328 329 330 331 332 332 331 329 326 327 327 324 322 322 327
302 303 303 305 307 310 314 317 322 326 328 331 335 336 336 335 333 332 330 328 328 330 332 332 332 332 329 332 325 323 322 322 326
301 301 302 302 302 302 303 304 307 313 318 323 324 331 337 336 335 333 331 330 328 328 331 331 332 331 331 328 327 324 323 321 321
300 301 301 301 301 301 302 302 303 304 306 312 320 323 329 334 335 336 333 333 331 329 330 331 331 332 332 330 330 325 323 322 321
300 299 299 300 300 300 300 301 301 302 302 304 308 315 322 327 332 334 335 333 334 331 329 330 331 331 332 332 331 328 324 322 321
300 300 299 299 299 299 299 299 300 300 301 302 303 306 311 319 326 332 333 335 334 333 332 330 330 331 332 333 333 331 327 323 322
301 301 300 300 299 298 297 298 298 299 300 300 301 302 307 311 318 326 332 333 334 334 332 333 331 330 331 331 334 332 330 326 322
301 301 301 301 301 300 299 298 297 297 298 299 300 300 301 305 310 319 325 331 333 334 333 332 333 332 330 333 332 333 332 328 324
302 300 300 299 300 300 300 298 298 298 297 298 298 299 300 301 304 310 318 324 330 331 331 332 331 332 331 332 334 332 333 331 325
298 298 298 298 299 299 299 299 298 299 298 298 298 298 298 300 301 303 310 316 321 329 330 332 332 332 331 332 333 334 333 332 330
297 297 298 299 298 298 298 299 299 298 299 299 301 301 298 298 299 301 303 309 315 322 329 330 333 332 331 331 333 334 333 331 331
297 297 297 296 297 297 296 296 296 296 297 301 301 300 301 300 302 302 301 304 310 315 325 329 331 332 332 331 332 333 338 331 330
297 297 297 296 296 296 296 296 296 297 300 301 301 301 301 303 302 313 317 319 317 314 323 328 329 332 332 331 328 331 333 331 328
297 297 297 297 297 295 294 296 297 299 301 302 301 300 300 301 303 301 312 318 320 322 325 329 329 329 331 331 332 333 333 332 333
296 296 296 297 296 294 295 296 298 298 299 301 302 301 300 300 302 303 301 306 312 318 323 325 329 329 329 328 328 331 332 332 332

GFSFLT1_850_thetae_234.txt.gz
Theta_e
337 336 334 332 332 332 332 336 336 335 332 327 326 326 325 327 336 338 335 330 333 324 328 328 327 325 326 330 329 330 326 323 326
338 338 338 337 333 333 334 333 333 336 336 334 330 326 326 326 337 337 335 333 328 326 326 325 326 326 325 328 327 328 326 329 327
335 335 335 335 336 334 335 335 336 337 336 337 336 332 327 329 335 337 336 334 330 329 328 327 324 324 323 328 324 324 323 323 324
330 332 333 333 333 333 333 337 336 335 336 336 337 337 333 330 334 335 335 333 330 330 330 330 327 325 323 322 322 323 322 322 326
315 319 322 325 327 327 327 329 331 333 335 335 334 337 338 335 336 335 334 333 329 330 330 330 330 328 326 325 323 323 322 322 328
303 304 305 307 309 312 315 317 320 324 328 330 334 335 335 338 334 336 335 331 328 330 331 331 332 330 328 327 326 325 322 322 326
302 302 302 302 302 302 303 303 304 307 312 318 325 331 336 336 337 335 334 333 329 329 330 331 332 331 330 330 331 327 323 322 325
302 302 302 302 302 302 303 303 303 303 303 304 309 318 323 332 336 336 335 334 332 330 329 330 332 332 332 331 331 332 325 323 322
303 302 301 301 301 301 301 302 302 302 302 303 304 307 317 327 328 335 336 335 334 332 331 329 331 333 332 332 334 333 329 325 323
304 304 304 304 302 301 301 301 301 302 303 302 302 306 312 314 321 323 331 333 334 331 333 332 330 335 332 332 332 333 333 328 325
304 304 304 304 304 304 302 303 302 302 303 303 304 305 305 307 311 316 322 329 333 335 334 333 332 334 335 332 332 332 332 332 328
304 304 304 303 303 303 303 302 302 302 302 303 303 303 304 306 308 308 315 323 326 333 335 334 333 331 332 335 331 332 333 333 332
303 303 303 303 303 303 303 303 304 303 302 302 302 302 302 304 305 308 309 317 324 327 332 334 334 334 332 331 331 331 332 333 333
300 302 303 302 302 302 303 303 303 303 303 302 302 301 302 302 303 305 307 306 308 318 326 331 333 334 332 332 332 331 332 332 333
299 299 299 300 300 301 302 302 303 303 303 303 302 302 302 303 303 305 306 309 308 310 317 325 330 333 332 332 332 333 332 333 332
300 299 299 299 300 301 301 300 301 301 301 301 302 301 301 301 302 304 305 305 308 312 317 321 325 329 331 331 332 332 332 333 334
299 299 299 300 299 299 300 300 300 300 299 300 301 301 301 301 302 307 309 310 309 310 313 318 323 324 329 331 332 332 332 333 335
299 299 299 299 299 299 299 299 299 299 299 299 300 302 301 301 301 302 302 307 313 316 317 319 320 318 327 330 332 332 331 332 335
298 298 298 298 299 299 299 299 298 299 299 300 301 302 302 302 301 301 302 303 305 313 316 319 322 322 323 329 332 332 333 331 332
296 297 297 297 297 298 298 298 298 298 299 300 300 301 302 302 301 301 301 302 303 306 309 314 319 322 323 329 333 332 333 331 330

GFSFLT1_850_thetae_237.txt.gz
Theta_e
338 338 336 334 333 332 332 332 335 335 335 334 328 326 326 325 328 337 339 333 335 334 324 327 327 325 326 324 326 325 324 321 322
335 336 337 338 337 333 334 335 334 335 335 335 334 333 327 326 331 337 338 336 331 327 326 326 324 324 324 324 325 324 321 320 321
333 334 334 335 334 335 333 333 334 337 336 335 336 336 334 330 329 336 337 337 334 330 328 327 326 325 324 324 325 323 321 321 320
318 323 326 329 331 332 332 332 332 334 334 335 337 336 336 335 334 335 336 336 334 330 330 330 329 326 325 323 322 322 321 321 321
305 308 312 314 317 319 323 325 326 328 331 332 334 334 335 337 336 335 336 335 335 333 331 331 330 329 327 326 323 322 322 321 322
303 304 302 303 304 304 304 306 308 311 317 322 327 331 334 335 336 337 335 335 335 333 330 330 332 332 330 328 329 326 323 322 322
305 305 304 303 303 303 303 303 303 303 304 305 311 325 330 335 336 336 335 334 336 335 330 330 331 332 333 332 330 330 326 323 323
306 307 307 305 304 304 304 304 304 304 304 304 304 305 310 325 326 334 336 333 334 335 333 330 329 330 332 333 333 333 332 325 323
307 306 307 306 307 306 305 306 306 304 304 306 308 305 304 307 323 326 329 336 336 336 335 334 331 329 329 331 333 332 333 332 327
307 306 306 306 306 306 306 306 306 306 305 305 306 307 308 309 308 312 317 319 330 334 335 332 333 332 331 330 331 332 332 333 331
305 306 306 306 306 305 306 306 305 304 304 305 305 305 306 307 307 307 307 307 311 323 333 334 331 331 332 330 331 331 331 332 332
304 304 304 305 305 305 305 305 304 304 304 304 304 304 304 304 305 307 308 308 306 308 320 331 334 334 333 332 331 332 331 331 332
302 301 301 304 304 304 304 305 305 305 305 305 304 304 303 303 304 304 306 307 309 308 310 317 327 333 335 334 334 332 332 331 331
302 301 301 301 302 303 303 304 304 304 304 304 304 303 303 303 303 303 304 304 305 306 306 306 315 327 332 334 335 333 332 332 331
301 301 300 300 300 300 300 301 302 303 304 304 303 303 304 303 303 303 303 304 305 306 305 304 305 308 324 332 333 335 335 333 332
300 300 300 300 300 300 300 301 302 302 302 302 302 302 302 303 302 302 303 306 306 305 304 304 306 306 315 320 330 333 333 335 333
299 300 300 300 300 300 300 300 300 301 301 301 301 301 302 303 302 302 306 306 308 311 312 308 309 313 318 320 320 331 332 332 337
298 299 300 300 300 300 301 300 301 301 300 300 301 300 301 302 302 302 302 302 303 304 310 315 315 315 315 321 321 326 331 331 331
297 297 298 298 299 299 300 300 300 300 300 300 300 300 301 302 303 303 302 302 303 303 306 308 314 317 321 322 320 321 328 331 331
298 297 297 297 298 298 298 299 299 299 300 299 300 300 301 302 303 303 302 302 302 302 303 307 311 315 316 320 322 323 320 329 331

GFSFLT1_850_thetae_240.txt.gz
Theta_e
337 337 338 335 334 333 332 332 332 333 335 335 334 328 326 326 325 332 336 338 334 335 333 327 328 327 327 326 328 327 326 323 323
333 334 335 335 336 337 335 333 334 333 334 335 335 334 333 327 326 334 338 339 336 331 329 326 327 325 325 324 326 327 325 322 324
316 323 328 331 333 334 334 334 333 332 334 336 335 336 336 334 329 330 337 338 334 332 330 327 327 325 325 323 324 324 322 322 321
306 308 311 316 320 325 330 331 332 332 329 332 334 336 336 336 335 329 335 337 335 332 331 329 329 328 326 324 322 322 321 321 320
306 305 304 304 305 307 310 317 323 324 326 329 331 332 334 335 335 335 333 336 336 335 334 329 329 330 328 327 325 322 322 322 321
305 305 306 304 303 303 303 303 304 305 309 314 321 326 329 333 334 335 334 335 336 335 334 332 329 333 333 331 328 329 325 322 321
304 305 305 305 306 305 303 303 303 304 304 304 305 310 326 329 333 336 335 335 335 335 335 333 329 329 331 333 333 332 331 327 323
304 307 306 305 305 305 305 304 304 305 305 305 305 304 306 314 322 327 333 336 335 334 335 335 332 329 330 330 332 333 334 332 329
306 306 307 306 306 305 304 304 304 305 305 305 306 307 306 305 313 322 324 330 336 334 332 333 334 333 330 329 329 331 333 332 332
307 306 305 306 306 306 306 306 305 304 303 303 304 305 306 307 308 309 320 317 322 331 334 329 332 335 334 333 330 329 330 332 332
303 305 306 306 306 306 305 305 305 305 304 303 303 304 304 305 306 306 307 312 310 307 319 330 331 332 332 331 333 331 330 331 331
302 302 303 303 303 304 305 305 305 305 304 304 304 303 304 304 304 304 305 306 306 308 309 312 322 333 333 332 331 333 332 332 331
301 302 302 302 301 301 304 304 304 304 304 305 304 304 304 303 303 303 304 303 304 305 307 308 316 321 326 333 333 333 333 333 332
300 301 302 302 301 300 301 302 303 304 304 304 304 304 304 304 303 303 302 301 301 301 303 306 311 314 314 320 332 334 334 334 333
299 300 301 302 301 301 300 300 300 300 301 302 303 305 304 303 303 303 301 301 300 300 301 301 302 306 312 314 317 331 333 334 335
298 299 300 301 301 300 301 300 300 301 301 303 303 303 302 301 301 302 303 301 303 305 305 304 301 301 302 304 307 321 327 333 335
297 298 298 299 300 301 300 301 300 301 301 301 301 302 301 301 301 302 302 302 303 303 305 311 314 311 308 307 305 307 317 326 335
299 298 297 298 299 300 301 301 301 301 301 301 301 301 301 301 301 302 303 302 303 305 305 307 311 314 314 317 314 315 316 321 325
297 297 298 297 297 298 299 300 300 301 301 301 301 300 300 300 300 300 300 302 302 302 302 301 303 309 312 315 317 318 319 319 322
297 298 297 298 298 297 298 298 299 300 301 300 300 300 299 299 301 301 302 303 302 302 302 302 306 308 305 308 314 319 321 320 317